Weather History for Wellsville, NY

Change the Weather History Date:

Friday, May 2, 2014

  Actual Average (KBFD) Record (KBFD)
Temperature  
Mean Temperature 46 °F 49 °F  
Max Temperature 53 °F 62 °F 80 °F (2001)
Min Temperature 42 °F 37 °F 22 °F (1979)
Degree Days  
Heating Degree Days 18 11  
Month to date heating degree days 22  
Since 1 July heating degree days 7273  
Cooling Degree Days 0 0  
Month to date cooling degree days 0  
Year to date cooling degree days 2  
Moisture  
Dew Point 36 °F    
Average Humidity 66    
Maximum Humidity 82    
Minimum Humidity 50    
Precipitation  
Precipitation 0.04 in 0.12 in 1.02 in (1983)
Month to date precipitation 0.24  
Year to date precipitation 12.80  
Sea Level Pressure  
Sea Level Pressure 29.79 in    
Wind  
Wind Speed 9 mph (WSW)    
Max Wind Speed 15 mph    
Max Gust Speed 28 mph    
Visibility 10 miles    
Events Rain    
T = Trace of Precipitation, MM = Missing Value Source: NWS Daily Summary

Daily Weather History Graph

Daily Weather History Graph

Search for Another Location

Airport:

Trip Planner

Search our weather history database for the weather conditions in past years. The results will help you decide how hot, cold, wet, or windy it might be!

Date:

Astronomy

May. 02, 2014 Rise Set
Actual Time 6:06 AM EDT 8:12 PM EDT
Civil Twilight 5:35 AM EDT 8:42 PM EDT
Nautical Twilight 4:58 AM EDT 9:20 PM EDT
Astronomical Twilight 4:17 AM EDT 10:01 PM EDT
Moon 8:40 AM EDT (5/2) 11:33 PM EDT (5/2)
Length of Visible Light 15h 07m
Length of Day
14h 05m
Waxing Crescent, 12% of the Moon is Illuminated
May 2
Waxing Crescent
May 6
First Quarter
May 14
Full
May 21
Last Quarter
May 28
New

Hourly Weather History & Observations

Time (EDT) Temp. Windchill Dew Point Humidity Pressure Visibility Wind Dir Wind Speed Gust Speed Precip Events Conditions
12:56 AM 48.0 °F - 33.1 °F 56% 29.78 in 10.0 mi WSW 6.9 mph - N/A   Overcast
1:56 AM 48.0 °F - 33.1 °F 56% 29.76 in 10.0 mi SW 8.1 mph - N/A   Overcast
2:56 AM 48.0 °F - 33.1 °F 56% 29.75 in 10.0 mi West 6.9 mph - N/A   Overcast
3:56 AM 45.0 °F 40.1 °F 35.1 °F 68% 29.76 in 10.0 mi WNW 9.2 mph - N/A   Overcast
4:56 AM 44.1 °F 41.5 °F 36.0 °F 73% 29.75 in 10.0 mi Variable 4.6 mph - 0.00 in   Overcast
5:56 AM 43.0 °F 40.3 °F 36.0 °F 76% 29.74 in 10.0 mi Variable 4.6 mph - 0.01 in Rain Light Rain
6:56 AM 43.0 °F 39.5 °F 37.0 °F 80% 29.75 in 10.0 mi SW 5.8 mph - 0.00 in   Overcast
7:56 AM 45.0 °F 39.3 °F 35.1 °F 68% 29.75 in 10.0 mi SW 11.5 mph 20.7 mph N/A   Overcast
8:38 AM 46.0 °F 39.6 °F 35.1 °F 66% 29.74 in 10.0 mi WSW 15.0 mph 20.7 mph N/A   Overcast
8:56 AM 45.0 °F 39.3 °F 35.1 °F 68% 29.77 in 10.0 mi WSW 11.5 mph 25.3 mph N/A   Overcast
9:45 AM 43.0 °F 37.2 °F 37.9 °F 82% 29.76 in 10.0 mi West 10.4 mph - 0.02 in Rain Light Rain
9:56 AM 44.1 °F 39.0 °F 37.9 °F 79% 29.79 in 10.0 mi West 9.2 mph 17.3 mph 0.02 in   Overcast
10:10 AM 45.0 °F 41.8 °F 39.0 °F 80% 29.76 in 10.0 mi Variable 5.8 mph - N/A   Overcast
10:56 AM 46.0 °F 40.2 °F 36.0 °F 68% 29.79 in 10.0 mi West 12.7 mph - N/A   Overcast
11:07 AM 42.1 °F 34.9 °F 35.1 °F 76% 29.78 in 10.0 mi NW 13.8 mph 27.6 mph 0.00 in Rain Light Rain
11:43 AM 44.1 °F 39.5 °F 37.9 °F 79% 29.79 in 10.0 mi West 8.1 mph 17.3 mph 0.01 in Rain Light Rain
11:56 AM 46.0 °F 40.2 °F 37.9 °F 73% 29.81 in 10.0 mi West 12.7 mph - 0.01 in   Overcast
1:56 PM 50.0 °F - 36.0 °F 59% 29.79 in 10.0 mi SSW 10.4 mph - N/A   Overcast
2:56 PM 51.1 °F - 34.0 °F 52% 29.79 in 10.0 mi West 9.2 mph - 0.00 in   Overcast
3:56 PM 51.1 °F - 33.1 °F 50% 29.80 in 10.0 mi West 11.5 mph 23.0 mph N/A   Overcast
4:56 PM 50.0 °F - 34.0 °F 54% 29.81 in 10.0 mi SW 9.2 mph - N/A   Overcast
5:56 PM 48.9 °F - 35.1 °F 59% 29.83 in 10.0 mi WSW 9.2 mph - 0.00 in Rain Light Rain
6:56 PM 48.9 °F - 36.0 °F 61% 29.83 in 10.0 mi SW 6.9 mph - 0.00 in   Overcast
7:56 PM 48.0 °F - 36.0 °F 63% 29.85 in 10.0 mi WSW 8.1 mph - N/A   Overcast
8:56 PM 48.0 °F - 36.0 °F 63% 29.85 in 10.0 mi WSW 9.2 mph 16.1 mph N/A   Overcast
9:56 PM 48.0 °F - 36.0 °F 63% 29.87 in 10.0 mi SW 5.8 mph - N/A   Overcast
10:56 PM 48.0 °F - 36.0 °F 63% 29.87 in 10.0 mi SW 11.5 mph - N/A   Overcast
11:56 PM 46.9 °F - 36.0 °F 66% 29.86 in 10.0 mi WSW 11.5 mph - N/A   Overcast